Regional Weather Roundup
Issued by NWS Cleveland, OH

Home | Current Version | Previous Version | Graphics & Text | Print | Product List | Glossary On
Versions: 1 2 3 4 5 6 7 8 9 10 11 12 13 14 15 16 17 18 19 20 21 22 23 24 25 26 27 28 29 30 31 32 33 34 35 36 37 38 39 40 41 42 43 44 45 46 47 48 49 50
000
ASUS41 KCLE 261100
RWRCLE
OHIO REGIONAL WEATHER ROUNDUP
NATIONAL WEATHER SERVICE WILMINGTON, OH
700 AM EDT SUN APR 26 2015

NOTE: "FAIR" INDICATES FEW OR NO CLOUDS BELOW 12,000 FEET WITH NO
SIGNIFICANT WEATHER AND/OR OBSTRUCTIONS TO VISIBILITY.

OHZ001>008-015>018-024>027-034-035-043-044-261200-
   NORTHWEST OHIO

CITY           SKY/WX    TMP DP  RH WIND       PRES   REMARKS
DEFIANCE       CLEAR     36  27  69 N9        29.88R
FINDLAY        CLEAR     38  32  79 N12       29.84R
TOLEDO EXPRESS CLEAR     33  26  75 N3        29.87R
TOLEDO EXEC    FAIR      37  28  70 N5        29.87R
LIMA           CLEAR     35  29  78 N9        29.83R WCI  28
$$

OHZ009>014-019>023-028>033-038-089-261200-
   NORTHEAST OHIO

CITY           SKY/WX    TMP DP  RH WIND       PRES   REMARKS
CLE-HOPKINS    CLEAR     37  33  85 N7        29.84R
CLE-LAKEFRONT  CLEAR     40  33  76 NE6       29.82R
CUY CO. ARPT   NOT AVBL
LORAIN-ELYRIA  CLEAR     36  32  85 N8        29.83R
ASHTABULA      CLEAR     32  29  88 NE3       29.82R
AKRON-CANTON   PTCLDY    36  26  67 N10       29.77R
WOOSTER        NOT AVBL
MANSFIELD      CLEAR     34  30  85 N9        29.80R WCI  27
YOUNGSTOWN     PTCLDY    34  26  72 NE10      29.77R WCI  26
$$

OHZ042-051>053-060>062-070>072-077>081-261200-
  SOUTHWEST OHIO

CITY           SKY/WX    TMP DP  RH WIND       PRES   REMARKS
CINC-COVINGTON CLOUDY    41  32  70 N7        29.77
CINC-LUNKEN    CLOUDY    41  32  70 N5        29.79R
HAMILTON       CLOUDY    43  32  65 N12       29.79R
DAYTON         NOT AVBL
WRIGHT-PAT AFB PTCLDY    40  33  77 N12       29.79R
DAYTON GENERAL CLOUDY    41  32  70 N14       29.77R
WILMINGTON     CLOUDY    40  32  73 N12       29.76R
$$

OHZ036-037-039>041-045>050-054>059-063>069-073>076-082>088-261200-
  CENTRAL AND SOUTHEAST OHIO

CITY           SKY/WX    TMP DP  RH WIND       PRES   REMARKS
COLUMBUS       MOCLDY    39  31  72 N8        29.76R
OSU AIRPORT    PTCLDY    39  31  72 N14       29.77R
BOLTON FIELD   NOT AVBL
RICKENBACK AFB NOT AVBL
NEWARK         PTCLDY    40  29  64 N7        29.75R
MARION         PTCLDY    35  32  88 N12       29.81R WCI  27
LANCASTER      MOCLDY    41  31  67 N12       29.75R
ZANESVILLE     PTCLDY    38  29  70 N5        29.74R
NEW PHILLY     CLEAR     39  28  64 NW5       29.76R
$$



USA.gov is the U.S. government's official web portal to all federal, state and local government web resources and services.